| time (UTC) | temp F | wind direction | speed knots | gust knots | rain 1hr in | rain 24hr in | rain mn in | humidity % | barometer mb |
| 20260504042055 | 41 | 140 | 0.0 | 0.9 | 0.00 | 0.00 | 0.00 | 61 | 1013.8 |
| 20260504041551 | 42 | 140 | 0.0 | 0.9 | 0.00 | 0.00 | 0.00 | 61 | 1013.5 |
| 20260504041047 | 42 | 179 | 0.0 | 0.0 | 0.00 | 0.00 | 0.00 | 61 | 1013.8 |
| 20260504040545 | 42 | 179 | 0.0 | 0.9 | 0.00 | 0.00 | 0.00 | 61 | 1013.8 |
| 20260504040041 | 42 | 150 | 0.9 | 0.9 | 0.00 | 0.00 | 0.00 | 60 | 1013.8 |
| 20260504035538 | 43 | 186 | 0.9 | 0.9 | 0.00 | 0.00 | 0.00 | 59 | 1013.8 |
| 20260504035034 | 43 | 207 | 0.9 | 0.9 | 0.00 | 0.00 | 0.00 | 58 | 1013.8 |
| 20260504034533 | 44 | 244 | 0.9 | 0.9 | 0.00 | 0.00 | 0.00 | 57 | 1013.8 |
| 20260504034029 | 44 | 245 | 0.9 | 0.9 | 0.00 | 0.00 | 0.00 | 55 | 1013.8 |
| 20260504033528 | 44 | 158 | 0.9 | 0.9 | 0.00 | 0.00 | 0.00 | 55 | 1013.8 |
| 20260504033024 | 44 | 184 | 0.9 | 0.9 | 0.00 | 0.00 | 0.00 | 55 | 1013.8 |
| 20260504032521 | 44 | 200 | 0.9 | 1.7 | 0.00 | 0.00 | 0.00 | 55 | 1013.8 |
| 20260504032018 | 44 | 213 | 0.9 | 1.7 | 0.00 | 0.00 | 0.00 | 54 | 1013.8 |
| 20260504031515 | 45 | 169 | 0.0 | 0.9 | 0.00 | 0.00 | 0.00 | 54 | 1013.8 |
| 20260504031011 | 45 | 186 | 0.0 | 2.6 | 0.00 | 0.00 | 0.00 | 52 | 1013.8 |
| 20260504030508 | 45 | 202 | 0.9 | 1.7 | 0.00 | 0.00 | 0.00 | 53 | 1013.8 |
| 20260504030004 | 45 | 176 | 0.0 | 2.6 | 0.00 | 0.00 | 0.00 | 53 | 1013.8 |
| 20260504025501 | 45 | 266 | 3.5 | 5.2 | 0.00 | 0.00 | 0.00 | 53 | 1013.8 |
| 20260504024958 | 45 | 235 | 0.9 | 2.6 | 0.00 | 0.00 | 0.00 | 53 | 1014.3 |
| 20260504024455 | 45 | 180 | 0.0 | 0.9 | 0.00 | 0.00 | 0.00 | 54 | 1014.3 |
| 20260504023952 | 46 | 197 | 0.9 | 0.9 | 0.00 | 0.00 | 0.00 | 53 | 1013.8 |
| 20260504023449 | 45 | 195 | 0.9 | 1.7 | 0.00 | 0.00 | 0.00 | 52 | 1014.3 |
| 20260504022944 | 45 | 237 | 1.7 | 2.6 | 0.00 | 0.00 | 0.00 | 53 | 1014.3 |
| 20260504022441 | 45 | 187 | 0.9 | 1.7 | 0.00 | 0.00 | 0.00 | 53 | 1014.3 |
| 20260504021937 | 45 | 196 | 0.9 | 1.7 | 0.00 | 0.00 | 0.00 | 53 | 1014.3 |
| 20260504021435 | 45 | 180 | 0.0 | 1.7 | 0.00 | 0.00 | 0.00 | 54 | 1013.8 |
| 20260504020932 | 44 | 175 | 1.7 | 2.6 | 0.00 | 0.00 | 0.00 | 54 | 1014.3 |
| 20260504020428 | 43 | 190 | 0.9 | 1.7 | 0.00 | 0.00 | 0.00 | 58 | 1013.8 |
| 20260504015925 | 42 | 178 | 0.9 | 2.6 | 0.00 | 0.00 | 0.00 | 59 | 1013.8 |
| 20260504015421 | 42 | 173 | 0.0 | 0.0 | 0.00 | 0.00 | 0.00 | 61 | 1013.8 |
| 20260504014917 | 42 | 173 | 0.0 | 0.0 | 0.00 | 0.00 | 0.00 | 61 | 1013.8 |
| 20260504014414 | 43 | 176 | 0.0 | 0.9 | 0.00 | 0.00 | 0.00 | 61 | 1013.8 |
| 20260504013910 | 42 | 166 | 0.0 | 0.0 | 0.00 | 0.00 | 0.00 | 60 | 1013.8 |
| 20260504013409 | 43 | 178 | 0.0 | 0.0 | 0.00 | 0.00 | 0.00 | 59 | 1013.8 |
| 20260504012905 | 43 | 179 | 0.0 | 0.0 | 0.00 | 0.00 | 0.00 | 58 | 1013.8 |
| 20260504012403 | 44 | 179 | 0.0 | 0.9 | 0.00 | 0.00 | 0.00 | 58 | 1013.8 |
| 20260504011900 | 45 | 180 | 0.0 | 0.0 | 0.00 | 0.00 | 0.00 | 54 | 1013.8 |
| 20260504011357 | 45 | 167 | 0.0 | 0.0 | 0.00 | 0.00 | 0.00 | 54 | 1013.8 |
| 20260504010852 | 45 | 203 | 0.0 | 0.9 | 0.00 | 0.00 | 0.00 | 53 | 1013.5 |
| 20260504010348 | 46 | 175 | 0.0 | 0.9 | 0.00 | 0.00 | 0.00 | 53 | 1013.5 |
| 20260504005845 | 46 | 173 | 0.0 | 0.9 | 0.00 | 0.00 | 0.00 | 52 | 1013.5 |
| 20260504005342 | 46 | 32 | 0.9 | 2.6 | 0.00 | 0.00 | 0.00 | 53 | 1013.5 |
| 20260504004839 | 46 | 214 | 0.9 | 0.9 | 0.00 | 0.00 | 0.00 | 52 | 1013.8 |
| 20260504004337 | 46 | 195 | 0.9 | 0.9 | 0.00 | 0.00 | 0.00 | 52 | 1013.5 |
| 20260504003833 | 46 | 185 | 0.0 | 0.9 | 0.00 | 0.00 | 0.00 | 51 | 1013.5 |
| 20260504003330 | 47 | 183 | 0.9 | 1.7 | 0.00 | 0.00 | 0.00 | 51 | 1013.5 |
| 20260504002827 | 48 | 189 | 0.0 | 0.9 | 0.00 | 0.00 | 0.00 | 50 | 1013.5 |
| 20260504002324 | 48 | 197 | 0.9 | 0.9 | 0.00 | 0.00 | 0.00 | 49 | 1013.5 |
| 20260504001821 | 48 | 194 | 0.0 | 0.9 | 0.00 | 0.00 | 0.00 | 48 | 1013.5 |
| 20260504001318 | 49 | 175 | 0.0 | 1.7 | 0.00 | 0.00 | 0.00 | 47 | 1013.5 |
| 20260504000815 | 50 | 184 | 0.9 | 5.2 | 0.00 | 0.00 | 0.00 | 45 | 1013.5 |
| 20260504000312 | 50 | 240 | 1.7 | 3.5 | 0.00 | 0.00 | 0.00 | 46 | 1013.5 |
| 20260503235810 | 50 | 174 | 1.7 | 3.5 | 0.00 | 0.00 | 0.00 | 45 | 1013.5 |
| 20260503235307 | 51 | 224 | 0.9 | 1.7 | 0.00 | 0.00 | 0.00 | 44 | 1013.5 |
| 20260503234805 | 51 | 266 | 3.5 | 5.2 | 0.00 | 0.00 | 0.00 | 44 | 1013.5 |
| 20260503234303 | 51 | 251 | 1.7 | 1.7 | 0.00 | 0.00 | 0.00 | 45 | 1013.5 |
| 20260503233800 | 51 | 214 | 1.7 | 2.6 | 0.00 | 0.00 | 0.00 | 44 | 1013.5 |
| 20260503233255 | 51 | 221 | 2.6 | 2.6 | 0.00 | 0.00 | 0.00 | 43 | 1013.5 |
| 20260503232753 | 52 | 279 | 4.3 | 6.1 | 0.00 | 0.00 | 0.00 | 42 | 1013.5 |
| 20260503232250 | 52 | 300 | 3.5 | 6.1 | 0.00 | 0.00 | 0.00 | 41 | 1013.5 |
| 20260503231748 | 52 | 180 | 1.7 | 2.6 | 0.00 | 0.00 | 0.00 | 42 | 1013.1 |
| 20260503231245 | 52 | 248 | 3.5 | 7.0 | 0.00 | 0.00 | 0.00 | 42 | 1013.5 |
| 20260503230740 | 53 | 270 | 1.7 | 2.6 | 0.00 | 0.00 | 0.00 | 42 | 1013.5 |
| 20260503230238 | 53 | 351 | 3.5 | 7.0 | 0.00 | 0.00 | 0.00 | 39 | 1013.5 |
| 20260503225735 | 53 | 197 | 0.9 | 6.1 | 0.00 | 0.00 | 0.00 | 39 | 1013.5 |
| 20260503225235 | 53 | 332 | 5.2 | 7.0 | 0.00 | 0.00 | 0.00 | 40 | 1013.5 |
| 20260503224732 | 53 | 275 | 1.7 | 2.6 | 0.00 | 0.00 | 0.00 | 41 | 1013.5 |
| 20260503224230 | 53 | 249 | 4.3 | 7.8 | 0.00 | 0.00 | 0.00 | 42 | 1013.5 |
| 20260503223728 | 53 | 319 | 4.3 | 7.0 | 0.00 | 0.00 | 0.00 | 39 | 1013.5 |
| 20260503223225 | 54 | 284 | 2.6 | 5.2 | 0.00 | 0.00 | 0.00 | 41 | 1013.5 |
| 20260503222721 | 55 | 256 | 3.5 | 6.1 | 0.00 | 0.00 | 0.00 | 39 | 1013.1 |
| 20260503222219 | 55 | 277 | 4.3 | 8.7 | 0.00 | 0.00 | 0.00 | 39 | 1013.5 |
| 20260503221717 | 55 | 211 | 1.7 | 5.2 | 0.00 | 0.00 | 0.00 | 40 | 1013.5 |
| 20260503221215 | 54 | 28 | 1.7 | 3.5 | 0.00 | 0.00 | 0.00 | 38 | 1013.5 |
| 20260503220711 | 55 | 316 | 5.2 | 7.8 | 0.00 | 0.00 | 0.00 | 38 | 1013.1 |
| 20260503220208 | 54 | 243 | 2.6 | 5.2 | 0.00 | 0.00 | 0.00 | 40 | 1013.5 |
| 20260503215705 | 54 | 229 | 0.9 | 5.2 | 0.00 | 0.00 | 0.00 | 40 | 1013.5 |
| 20260503215202 | 54 | 281 | 8.7 | 13.0 | 0.00 | 0.00 | 0.00 | 39 | 1013.5 |
| 20260503214700 | 53 | 226 | 1.7 | 13.9 | 0.00 | 0.00 | 0.00 | 42 | 1013.5 |
| 20260503214156 | 55 | 302 | 3.5 | 6.1 | 0.00 | 0.00 | 0.00 | 41 | 1013.5 |
| 20260503213655 | 55 | 301 | 3.5 | 7.0 | 0.00 | 0.00 | 0.00 | 39 | 1013.8 |
| 20260503213151 | 55 | 282 | 1.7 | 1.7 | 0.00 | 0.00 | 0.00 | 40 | 1013.5 |
| 20260503212649 | 53 | 275 | 2.6 | 5.2 | 0.00 | 0.00 | 0.00 | 44 | 1013.8 |
| 20260503212146 | 54 | 290 | 5.2 | 14.8 | 0.00 | 0.00 | 0.00 | 39 | 1013.5 |
| 20260503211644 | 54 | 334 | 3.5 | 7.8 | 0.00 | 0.00 | 0.00 | 38 | 1013.5 |
| 20260503211139 | 54 | 301 | 2.6 | 3.5 | 0.00 | 0.00 | 0.00 | 40 | 1013.8 |
| 20260503210636 | 53 | 217 | 1.7 | 6.1 | 0.00 | 0.00 | 0.00 | 41 | 1013.5 |
| 20260503210132 | 54 | 322 | 4.3 | 7.0 | 0.00 | 0.00 | 0.00 | 39 | 1013.5 |
| 20260503205628 | 53 | 305 | 1.7 | 3.5 | 0.00 | 0.00 | 0.00 | 38 | 1013.8 |
| 20260503205125 | 54 | 325 | 3.5 | 5.2 | 0.00 | 0.00 | 0.00 | 40 | 1013.8 |
| 20260503204621 | 56 | 322 | 5.2 | 13.9 | 0.00 | 0.00 | 0.00 | 38 | 1013.8 |
| 20260503204119 | 53 | 254 | 3.5 | 5.2 | 0.00 | 0.00 | 0.00 | 43 | 1013.8 |
| 20260503203616 | 53 | 321 | 3.5 | 7.0 | 0.00 | 0.00 | 0.00 | 40 | 1013.5 |
| 20260503203113 | 55 | 326 | 1.7 | 5.2 | 0.00 | 0.00 | 0.00 | 39 | 1013.8 |
| 20260503202611 | 54 | 252 | 4.3 | 7.8 | 0.00 | 0.00 | 0.00 | 40 | 1013.8 |
| 20260503202108 | 54 | 12 | 2.6 | 6.1 | 0.00 | 0.00 | 0.00 | 38 | 1013.8 |
| 20260503201606 | 55 | 9 | 5.2 | 7.8 | 0.00 | 0.00 | 0.00 | 38 | 1013.8 |
| 20260503201103 | 55 | 288 | 4.3 | 6.1 | 0.00 | 0.00 | 0.00 | 39 | 1013.8 |
| 20260503200600 | 56 | 303 | 3.5 | 7.0 | 0.00 | 0.00 | 0.00 | 40 | 1013.8 |
| 20260503200056 | 55 | 244 | 2.6 | 8.7 | 0.00 | 0.00 | 0.00 | 40 | 1013.8 |
| 20260503195553 | 56 | 208 | 5.2 | 7.0 | 0.00 | 0.00 | 0.00 | 37 | 1014.3 |
| 20260503195050 | 56 | 332 | 7.8 | 11.3 | 0.00 | 0.00 | 0.00 | 37 | 1014.3 |
| 20260503194547 | 54 | 22 | 1.7 | 11.3 | 0.00 | 0.00 | 0.00 | 42 | 1014.3 |
| 20260503194047 | 52 | 233 | 3.5 | 5.2 | 0.00 | 0.00 | 0.00 | 43 | 1014.3 |
| 20260503193544 | 53 | 243 | 2.6 | 5.2 | 0.00 | 0.00 | 0.00 | 41 | 1014.3 |
| 20260503193039 | 53 | 40 | 3.5 | 8.7 | 0.00 | 0.00 | 0.00 | 39 | 1014.3 |
| 20260503192536 | 53 | 287 | 4.3 | 9.6 | 0.00 | 0.00 | 0.00 | 40 | 1014.3 |
| 20260503192031 | 52 | 318 | 5.2 | 12.2 | 0.00 | 0.00 | 0.00 | 40 | 1014.6 |
| 20260503191528 | 52 | 310 | 2.6 | 5.2 | 0.00 | 0.00 | 0.00 | 41 | 1014.6 |
| 20260503191025 | 53 | 255 | 7.0 | 11.3 | 0.00 | 0.00 | 0.00 | 39 | 1014.6 |
| 20260503190522 | 53 | 359 | 3.5 | 7.0 | 0.00 | 0.00 | 0.00 | 41 | 1014.9 |
| 20260503190019 | 52 | 277 | 3.5 | 6.1 | 0.00 | 0.00 | 0.00 | 41 | 1014.9 |
| 20260503185515 | 52 | 309 | 3.5 | 7.8 | 0.00 | 0.00 | 0.00 | 41 | 1014.9 |
| 20260503185015 | 53 | 275 | 1.7 | 6.1 | 0.00 | 0.00 | 0.00 | 41 | 1014.9 |
| 20260503184512 | 53 | 258 | 4.3 | 5.2 | 0.00 | 0.00 | 0.00 | 42 | 1014.9 |
| 20260503184008 | 54 | 353 | 3.5 | 6.1 | 0.00 | 0.00 | 0.00 | 40 | 1014.9 |
| 20260503183505 | 53 | 266 | 5.2 | 7.0 | 0.00 | 0.00 | 0.00 | 40 | 1014.9 |
| 20260503183002 | 53 | 17 | 5.2 | 7.0 | 0.00 | 0.00 | 0.00 | 40 | 1014.9 |
| 20260503182501 | 51 | 280 | 4.3 | 7.0 | 0.00 | 0.00 | 0.00 | 44 | 1014.9 |
| 20260503181958 | 53 | 338 | 4.3 | 13.0 | 0.00 | 0.00 | 0.00 | 39 | 1015.3 |
| 20260503181455 | 53 | 13 | 7.8 | 12.2 | 0.00 | 0.00 | 0.00 | 40 | 1015.3 |
| 20260503180950 | 54 | 273 | 2.6 | 6.1 | 0.00 | 0.00 | 0.00 | 41 | 1015.3 |
| 20260503180449 | 53 | 312 | 6.1 | 8.7 | 0.00 | 0.00 | 0.00 | 44 | 1015.3 |
| 20260503175945 | 53 | 287 | 3.5 | 6.1 | 0.00 | 0.00 | 0.00 | 43 | 1014.9 |
| 20260503175444 | 52 | 303 | 4.3 | 7.8 | 0.00 | 0.00 | 0.00 | 42 | 1015.3 |
| 20260503174939 | 53 | 325 | 6.1 | 7.0 | 0.00 | 0.00 | 0.00 | 38 | 1015.3 |
| 20260503174437 | 53 | 303 | 5.2 | 7.0 | 0.00 | 0.00 | 0.00 | 40 | 1015.3 |
| 20260503173932 | 53 | 356 | 2.6 | 3.5 | 0.00 | 0.00 | 0.00 | 40 | 1015.3 |
| 20260503173428 | 53 | 354 | 7.0 | 8.7 | 0.00 | 0.00 | 0.00 | 39 | 1015.3 |
| 20260503172925 | 51 | 224 | 3.5 | 6.1 | 0.00 | 0.00 | 0.00 | 48 | 1015.3 |
| 20260503172423 | 50 | 276 | 3.5 | 7.0 | 0.00 | 0.00 | 0.00 | 46 | 1015.6 |
| 20260503171919 | 51 | 200 | 6.1 | 11.3 | 0.00 | 0.00 | 0.00 | 42 | 1015.3 |
| 20260503171416 | 53 | 233 | 3.5 | 8.7 | 0.00 | 0.00 | 0.00 | 43 | 1015.3 |
| 20260503170913 | 51 | 356 | 0.9 | 6.1 | 0.00 | 0.00 | 0.00 | 41 | 1015.3 |
| 20260503170409 | 50 | 310 | 5.2 | 13.0 | 0.00 | 0.00 | 0.00 | 45 | 1015.6 |
| 20260503150802 | 47 | 332 | 4.3 | 8.7 | 0.00 | 0.00 | 0.00 | 48 | 1016.4 |
| 20260503150257 | 47 | 306 | 3.5 | 7.8 | 0.00 | 0.00 | 0.00 | 52 | 1016.4 |
| 20260503140222 | 45 | 334 | 7.8 | 11.3 | 0.00 | 0.00 | 0.00 | 54 | 1016.4 |
| 20260503131152 | 41 | 334 | 2.6 | 3.5 | 0.00 | 0.00 | 0.00 | 67 | 1016.4 |
| 20260503130649 | 41 | 254 | 1.7 | 2.6 | 0.00 | 0.00 | 0.00 | 67 | 1016.4 |
| 20260503130147 | 40 | 324 | 2.6 | 3.5 | 0.00 | 0.00 | 0.00 | 68 | 1016.4 |
| 20260503120112 | 37 | 316 | 1.7 | 3.5 | 0.00 | 0.00 | 0.00 | 76 | 1016.0 |
| 20260503110539 | 31 | 168 | 0.9 | 2.6 | 0.00 | 0.00 | 0.00 | 87 | 1015.6 |
| 20260503090426 | 29 | 125 | 0.0 | 0.9 | 0.00 | 0.00 | 0.00 | 93 | 1014.6 |
| 20260503081352 | 29 | 169 | 0.0 | 0.0 | 0.00 | 0.00 | 0.00 | 91 | 1014.6 |
| 20260503080849 | 30 | 170 | 0.0 | 0.9 | 0.00 | 0.00 | 0.00 | 91 | 1014.3 |
| 20260503080347 | 29 | 181 | 0.0 | 0.9 | 0.00 | 0.00 | 0.00 | 91 | 1014.6 |
| 20260503072823 | 31 | 159 | 0.0 | 0.0 | 0.00 | 0.00 | 0.00 | 88 | 1014.3 |
| 20260503072320 | 31 | 173 | 0.0 | 0.9 | 0.00 | 0.00 | 0.00 | 88 | 1014.3 |
| 20260503071816 | 31 | 163 | 0.0 | 0.0 | 0.00 | 0.00 | 0.00 | 87 | 1014.3 |
| 20260503071314 | 32 | 170 | 0.0 | 0.9 | 0.00 | 0.00 | 0.00 | 87 | 1014.3 |
| 20260503070809 | 32 | 171 | 0.0 | 0.0 | 0.00 | 0.00 | 0.00 | 86 | 1014.3 |
| 20260503070302 | 32 | 135 | 0.0 | 1.7 | 0.00 | 0.00 | 0.00 | 87 | 1014.3 |
| 20260503060221 | 32 | 42 | 0.9 | 0.9 | 0.00 | 0.00 | 0.00 | 84 | 1014.3 |
| 20260503054708 | 32 | 175 | 0.0 | 0.9 | 0.00 | 0.00 | 0.00 | 86 | 1014.3 |
| 20260503054205 | 32 | 185 | 0.0 | 1.7 | 0.00 | 0.00 | 0.00 | 86 | 1014.3 |
| 20260503053703 | 32 | 9 | 0.9 | 1.7 | 0.00 | 0.00 | 0.00 | 87 | 1014.3 |
| 20260503053201 | 32 | 189 | 0.0 | 0.0 | 0.00 | 0.00 | 0.00 | 86 | 1014.3 |
| 20260503052657 | 33 | 164 | 0.0 | 0.0 | 0.00 | 0.00 | 0.00 | 85 | 1014.3 |
| 20260503052154 | 33 | 162 | 0.0 | 0.9 | 0.00 | 0.00 | 0.00 | 85 | 1014.3 |
| 20260503051649 | 33 | 185 | 0.0 | 1.7 | 0.00 | 0.00 | 0.00 | 84 | 1014.6 |
| 20260503051147 | 33 | 166 | 0.0 | 0.9 | 0.00 | 0.00 | 0.00 | 84 | 1014.3 |
| 20260503050643 | 33 | 256 | 0.9 | 1.7 | 0.00 | 0.00 | 0.00 | 84 | 1014.6 |
| 20260503050140 | 33 | 283 | 0.9 | 1.7 | 0.00 | 0.00 | 0.00 | 84 | 1014.6 |
| 20260503045638 | 33 | 188 | 0.9 | 0.9 | 0.00 | 0.00 | 0.00 | 84 | 1014.6 |
| 20260503045135 | 33 | 239 | 0.9 | 1.7 | 0.00 | 0.00 | 0.00 | 83 | 1014.6 |
| 20260503044631 | 34 | 144 | 0.9 | 0.9 | 0.00 | 0.00 | 0.00 | 83 | 1014.6 |
| 20260503044129 | 34 | 162 | 0.0 | 2.6 | 0.00 | 0.00 | 0.00 | 83 | 1014.6 |
| 20260503043625 | 34 | 226 | 0.9 | 1.7 | 0.00 | 0.00 | 0.00 | 83 | 1014.6 |
| 20260503043122 | 34 | 275 | 0.0 | 1.7 | 0.00 | 0.00 | 0.00 | 83 | 1014.6 |
| 20260503042619 | 34 | 295 | 1.7 | 2.6 | 0.00 | 0.00 | 0.00 | 82 | 1014.6 |